Location: Freistadt
(48.5112°N, 14.5013°E)
Time: 09:53:50
(UTC+02:00)

PCSat - Pass Details

Date: 30 March 2023
Orbit: 783 x 794 km, 67.1° (Epoch: 29 May)

Event Time Altitude Azimuth Distance (km) Brightness Sun altitude
Rises 00:57:28 0° 326° (NW) 3,301 13.5 -37.9°
Reaches altitude 10° 00:59:55 10° 329° (NNW) 2,369 12.6 -37.9°
Enters shadow 01:02:00 24° 334° (NNW) 1,613 11.6 -37.9°
